Wind_Speed
96 92 88 88 86 82 77 74 71 68 72 70 69 69 68 68 66 63 65 66 69 69 69 68 69 68 70 70 70 75 72 74 75 72 85 84 86 86
100 99 99 94 89 85 81 78 76 73 71 68 67 70 70 69 67 70 70 69 71 69 68 70 72 73 71 72 76 73 68 72 75 76 84 83 86 89
101 98 99 98 93 88 86 82 79 75 73 68 70 70 71 70 71 72 75 72 71 70 68 70 72 74 70 77 77 71 69 73 75 82 81 85 87 87
108 101 94 89 93 89 89 85 82 81 77 73 73 72 72 70 73 74 77 72 71 70 69 70 67 77 68 76 75 67 71 76 75 81 84 86 86 90
104 99 95 94 96 92 89 88 84 81 80 79 78 76 76 77 76 78 77 74 75 72 71 68 69 63 69 74 75 71 70 76 76 78 82 82 90 95
110 102 101 97 92 92 87 87 85 82 80 78 76 76 80 82 83 84 82 77 75 71 72 66 71 65 79 77 73 71 69 74 77 78 80 91 95 98
118 109 103 96 92 90 88 88 88 84 78 73 75 77 80 81 85 80 76 75 71 69 68 70 67 66 72 72 73 72 71 74 76 81 86 97 97 105
126 117 108 105 100 93 88 81 82 83 86 81 76 70 72 71 70 76 78 72 76 71 67 66 66 67 70 73 73 73 71 77 80 88 87 98 104 109
123 124 117 105 100 101 95 86 85 82 78 83 78 83 78 69 69 70 72 71 74 66 69 68 72 70 72 70 71 71 74 80 84 87 94 100 105 109
137 132 123 108 102 103 95 92 89 92 94 95 91 88 80 76 70 72 70 70 68 70 68 72 70 70 72 70 71 72 74 81 83 93 96 101 108 114
137 135 123 121 117 109 108 107 98 97 106 103 99 95 85 78 72 72 71 69 69 70 71 68 69 71 72 73 73 74 76 82 88 93 97 103 110 118
141 140 133 127 123 125 122 125 109 110 108 105 100 95 87 83 76 74 71 71 70 72 76 71 74 72 72 72 72 73 75 85 88 95 95 103 112 125
144 143 133 133 131 122 123 118 117 108 106 104 106 99 90 86 82 77 75 74 74 76 74 70 66 70 73 74 74 77 84 88 93 95 101 107 116 124
159 146 145 138 136 125 113 116 117 110 107 105 103 102 96 93 89 82 81 80 79 80 75 75 69 75 73 77 81 82 85 89 95 98 104 109 120 125
159 145 140 134 133 128 113 109 113 108 106 109 105 100 98 98 94 88 84 87 84 87 84 83 76 81 75 79 83 85 88 89 93 99 108 119 120 127
155 147 145 144 141 132 126 116 114 109 109 110 112 105 100 95 89 85 86 82 86 83 83 83 85 84 90 81 85 89 91 98 108 105 112 119 118 126
160 162 157 150 144 139 139 129 123 116 114 115 113 111 103 95 90 89 86 82 85 86 86 85 84 85 86 85 89 92 99 104 107 114 118 119 123 129
166 163 162 154 145 145 136 132 124 120 118 119 115 108 109 104 96 89 87 84 86 90 88 88 90 89 88 85 89 95 104 107 113 119 122 122 125 126
168 169 164 155 155 149 146 131 129 127 120 119 120 112 108 101 97 90 87 85 90 89 88 91 91 88 90 88 95 103 115 118 121 124 124 122 127 122
172 170 172 159 161 156 153 137 132 129 125 127 123 121 112 109 104 96 86 87 91 92 93 93 90 88 90 99 105 111 117 119 122 123 125 124 121 121
176 170 168 164 165 164 145 143 144 143 137 131 126 128 116 112 108 102 98 91 88 90 96 96 93 97 104 108 113 116 120 121 121 121 120 122 119 115
181 174 170 169 167 162 158 148 147 148 144 136 133 129 120 117 111 107 107 106 105 105 107 107 112 114 113 116 118 116 117 116 119 117 118 118 113 111
188 183 177 170 165 165 157 155 154 145 142 141 137 134 131 122 115 113 123 120 128 122 120 121 116 113 117 118 116 113 112 112 113 113 112 109 110 113
Wind_Direction
231 234 236 239 241 243 244 245 247 252 255 254 258 261 264 265 267 269 271 278 279 283 289 294 297 300 306 305 308 313 320 321 324 325 330 329 329 332
232 235 235 238 239 241 242 243 246 249 253 254 257 259 261 264 266 269 272 275 278 283 287 292 297 308 306 308 307 312 319 319 320 322 327 328 328 329
234 231 233 239 239 240 243 243 244 247 250 251 256 258 258 260 264 267 271 275 280 283 287 296 304 310 306 308 306 314 316 318 320 326 327 328 330 321
234 230 235 236 241 240 244 243 242 245 247 251 255 255 256 258 264 268 271 275 280 284 290 300 301 306 309 305 307 312 316 316 320 326 327 327 322 316
228 231 232 234 237 240 242 244 245 244 248 251 254 252 255 260 264 267 270 275 281 282 287 298 306 302 306 301 305 313 315 317 321 324 323 317 316 318
227 230 230 231 234 239 241 243 244 245 248 253 257 261 262 262 263 264 268 275 278 281 291 293 301 297 307 301 306 311 316 315 317 321 315 315 313 316
228 228 229 230 232 236 239 242 244 245 246 253 262 263 260 261 263 266 271 274 274 282 289 297 299 294 300 303 307 310 314 317 316 313 316 319 318 317
230 228 227 229 231 233 236 240 245 249 249 252 260 256 257 255 261 268 270 270 277 281 289 291 295 295 298 303 306 309 311 315 318 317 315 319 317 317
230 231 227 226 229 233 235 235 242 245 249 256 258 253 256 260 263 266 269 272 278 281 286 291 289 292 299 305 306 307 311 315 317 315 314 317 317 317
230 228 225 226 230 230 231 234 239 244 251 257 258 258 252 260 260 264 268 271 273 284 283 286 290 292 298 300 302 303 311 313 315 314 316 316 316 317
226 224 227 229 229 229 237 238 240 241 251 255 259 256 257 258 259 263 264 267 273 278 280 284 289 292 295 299 298 305 309 310 313 315 312 314 316 319
222 223 227 230 233 238 242 238 241 244 252 252 255 253 253 255 259 260 261 265 274 278 280 281 288 292 295 295 297 302 307 312 314 315 313 313 314 322
222 225 229 232 236 237 241 239 239 244 248 251 250 249 252 255 258 258 264 270 274 276 278 280 281 286 290 294 296 302 307 311 314 314 313 311 317 325
224 226 230 232 235 235 233 235 240 243 244 243 244 249 251 254 257 259 264 267 270 274 274 278 280 289 289 292 295 303 309 309 313 310 311 314 322 323
223 223 226 228 229 231 231 233 236 238 243 241 240 245 249 252 257 259 260 265 270 272 272 278 283 287 288 292 298 303 307 307 307 308 311 316 321 324
223 220 225 228 232 231 230 230 230 232 235 236 242 244 246 248 252 256 259 264 268 269 273 277 281 286 289 294 296 299 300 302 306 307 312 320 321 324
222 221 223 229 229 229 231 231 229 232 235 238 241 240 243 245 248 251 257 261 268 272 274 279 283 287 285 289 294 298 300 302 302 309 312 318 321 323
221 225 225 222 228 228 228 229 229 235 236 236 237 240 246 245 248 251 256 260 265 269 274 280 282 282 283 288 291 296 297 302 303 307 314 318 321 321
221 224 227 224 227 228 228 228 231 233 231 235 236 239 242 243 246 249 255 261 263 269 273 276 278 276 279 288 294 292 296 303 306 309 313 317 317 319
220 222 226 225 226 231 231 229 230 230 233 231 235 239 241 245 246 245 251 258 262 267 270 273 273 277 279 282 287 293 297 302 304 310 309 313 314 318
217 221 225 226 227 229 228 233 233 234 233 234 237 239 238 242 243 248 246 256 262 265 265 268 272 275 280 287 291 295 299 299 303 305 309 311 313 315
217 219 223 226 228 228 229 229 233 232 236 237 236 235 237 239 242 243 247 253 261 265 267 269 275 279 285 288 291 293 296 299 302 305 307 310 313 315
215 217 219 223 227 229 228 231 233 234 234 235 234 236 239 238 240 245 252 255 261 265 269 272 278 281 286 288 290 294 296 300 303 305 306 310 311 315
Height
10732 10738 10747 10755 10763 10770 10779 10786 10796 10803 10805 10811 10814 10816 10819 10821 10823 10824 10822 10823 10820 10819 10818 10815 10812 10809 10804 10798 10792 10787 10779 10771 10763 10754 10744 10733 10722 10707
10713 10722 10732 10739 10747 10755 10763 10773 10781 10787 10793 10799 10800 10803 10807 10809 10811 10813 10812 10811 10811 10811 10810 10806 10803 10801 10796 10791 10784 10778 10769 10761 10753 10744 10733 10721 10709 10696
10695 10705 10715 10720 10732 10740 10748 10758 10765 10773 10779 10783 10787 10790 10794 10797 10799 10801 10801 10801 10802 10802 10800 10798 10796 10792 10788 10782 10776 10768 10760 10752 10743 10734 10721 10710 10699 10686
10677 10687 10698 10707 10714 10726 10732 10742 10749 10758 10766 10770 10773 10777 10781 10784 10787 10790 10791 10791 10791 10793 10791 10789 10788 10785 10779 10773 10766 10759 10751 10742 10734 10722 10709 10699 10686 10676
10656 10670 10680 10690 10699 10710 10716 10727 10736 10743 10750 10754 10759 10765 10768 10772 10776 10777 10779 10782 10782 10784 10781 10780 10778 10776 10771 10764 10757 10750 10741 10733 10725 10711 10698 10689 10678 10666
10639 10653 10663 10672 10682 10693 10701 10709 10719 10727 10735 10740 10745 10751 10756 10759 10762 10765 10768 10773 10774 10772 10773 10772 10771 10767 10762 10756 10748 10742 10732 10724 10713 10700 10689 10679 10668 10656
10621 10634 10646 10657 10667 10676 10685 10693 10703 10712 10721 10726 10732 10738 10741 10745 10750 10754 10758 10761 10761 10764 10764 10764 10761 10756 10750 10743 10737 10731 10724 10713 10703 10692 10681 10669 10659 10646
10602 10616 10628 10640 10650 10660 10671 10678 10686 10694 10705 10714 10720 10725 10728 10733 10739 10745 10746 10747 10750 10753 10753 10752 10747 10742 10739 10732 10726 10722 10713 10705 10693 10683 10670 10660 10648 10634
10580 10595 10611 10622 10631 10644 10655 10665 10673 10678 10685 10696 10707 10712 10718 10721 10728 10730 10732 10734 10738 10738 10739 10736 10734 10731 10726 10721 10718 10712 10704 10694 10685 10675 10660 10650 10637 10623
10562 10576 10589 10603 10614 10627 10640 10651 10660 10664 10672 10679 10688 10697 10708 10712 10714 10715 10719 10723 10727 10728 10727 10725 10723 10719 10715 10712 10706 10700 10694 10685 10678 10667 10652 10641 10628 10613
10537 10556 10569 10585 10599 10609 10627 10638 10648 10652 10657 10665 10674 10685 10696 10699 10699 10703 10707 10712 10713 10715 10716 10714 10711 10706 10703 10702 10696 10689 10683 10676 10669 10658 10646 10633 10618 10600
10517 10534 10550 10564 10577 10591 10608 10619 10633 10638 10647 10652 10661 10668 10678 10684 10688 10690 10696 10699 10700 10701 10704 10701 10699 10696 10693 10689 10685 10678 10674 10669 10659 10647 10639 10626 10610 10592
10493 10514 10530 10544 10558 10572 10587 10602 10618 10623 10631 10638 10645 10656 10664 10668 10673 10677 10682 10687 10689 10689 10692 10689 10688 10685 10681 10677 10674 10668 10664 10657 10648 10637 10628 10618 10604 10585
10469 10493 10509 10525 10538 10554 10568 10582 10596 10603 10612 10623 10633 10641 10649 10652 10658 10664 10671 10674 10675 10677 10677 10677 10678 10676 10672 10668 10663 10659 10654 10645 10640 10627 10615 10604 10590 10578
10449 10477 10484 10503 10514 10531 10548 10559 10572 10583 10596 10608 10619 10626 10631 10637 10646 10651 10655 10659 10661 10664 10664 10666 10667 10664 10661 10657 10651 10648 10645 10637 10631 10622 10605 10594 10579 10564
10427 10450 10459 10477 10488 10511 10521 10533 10547 10566 10579 10590 10599 10608 10616 10624 10632 10635 10640 10646 10648 10650 10653 10654 10655 10654 10651 10647 10643 10638 10632 10627 10621 10612 10599 10587 10574 10562
10392 10406 10427 10437 10459 10475 10489 10512 10529 10547 10561 10577 10584 10590 10601 10609 10617 10621 10625 10631 10634 10638 10641 10640 10643 10642 10639 10637 10633 10625 10621 10616 10608 10602 10589 10580 10568 10556
10361 10374 10389 10420 10427 10447 10472 10492 10515 10529 10545 10559 10568 10571 10585 10592 10601 10605 10611 10617 10625 10626 10628 10629 10630 10627 10624 10627 10620 10616 10610 10604 10596 10587 10576 10571 10558 10550
10328 10350 10365 10402 10409 10427 10445 10481 10501 10512 10525 10536 10546 10556 10567 10576 10584 10589 10597 10603 10609 10614 10617 10616 10616 10614 10614 10613 10610 10603 10598 10592 10583 10577 10567 10560 10548 10540
10304 10326 10333 10379 10393 10401 10434 10465 10476 10487 10504 10515 10526 10543 10551 10560 10568 10575 10583 10591 10597 10599 10602 10603 10602 10602 10600 10602 10596 10596 10588 10584 10574 10568 10558 10553 10544 10529
10279 10309 10321 10342 10366 10385 10414 10437 10449 10467 10483 10494 10512 10525 10532 10541 10551 10563 10571 10578 10582 10584 10588 10588 10589 10589 10590 10589 10585 10582 10578 10573 10567 10558 10550 10543 10534 10522
10254 10287 10298 10314 10331 10364 10392 10417 10416 10434 10458 10479 10492 10503 10513 10522 10536 10547 10555 10562 10565 10569 10572 10575 10574 10575 10580 10578 10575 10573 10570 10566 10557 10549 10541 10528 10517 10508
10213 10253 10281 10284 10307 10337 10367 10384 10400 10413 10438 10452 10468 10482 10494 10505 10517 10530 10537 10546 10548 10553 10560 10555 10562 10564 10569 10566 10566 10566 10560 10556 10547 10540 10531 10518 10507 10497